Weather History for KMDW - March, 2012

Change the Weather History Date:

Saturday, March 24, 2012

  Actual Average Record
Temperature  
Mean Temperature 55 °F 42 °F  
Max Temperature 60 °F 50 °F 79 °F (1939)
Min Temperature 50 °F 34 °F 5 °F (1974)
Degree Days  
Heating Degree Days 10 23  
Month to date heating degree days 281 659  
Since 1 July heating degree days 5170  
Cooling Degree Days 0 0  
Month to date cooling degree days 51 0  
Year to date cooling degree days 51 0  
Growing Degree Days 6 (Base 50)    
Moisture  
Dew Point 51 °F    
Average Humidity 94    
Maximum Humidity 100    
Minimum Humidity 75    
Precipitation  
Precipitation 0.01 in 0.08 in 1.26 in (1969)
Month to date precipitation 1.62 2.05  
Year to date precipitation 3.79 6.05  
Sea Level Pressure  
Sea Level Pressure 29.85 in    
Wind  
Wind Speed 6 mph (North)    
Max Wind Speed 16 mph    
Max Gust Speed 20 mph    
Visibility 3 miles    
Events Fog    
T = Trace of Precipitation, MM = Missing Value Source: NWS Daily Summary

Daily Weather History Graph

Daily Weather History Graph

Search for Another Location

Airport or City:

Trip Planner

Search our weather history database for the weather conditions in past years. The results will help you decide how hot, cold, wet, or windy it might be!

Date:

Astronomy

Mar. 24, 2012 Rise Set
Actual Time 6:46 AM CDT 7:08 PM CDT
Civil Twilight 6:18 AM CDT 7:36 PM CDT
Nautical Twilight 5:46 AM CDT 8:08 PM CDT
Astronomical Twilight 5:12 AM CDT 8:42 PM CDT
Moon 7:23 AM CDT (3/24) 9:30 PM CDT (3/24)
Length of Visible Light 13h 17m
Length of Day
12h 21m
Waxing Crescent, 4% of the Moon is Illuminated
Mar 24
Waxing Crescent
Mar 30
First Quarter
Apr 6
Full
Apr 13
Last Quarter
Apr 21
New

Hourly Weather History & Observations

Time (CDT) Temp. Dew Point Humidity Pressure Visibility Wind Dir Wind Speed Gust Speed Precip Events Conditions
12:51 AM 53.1 °F 51.1 °F 93% 29.80 in 10.0 mi ESE 6.9 mph - N/A   Mostly Cloudy
1:17 AM 51.8 °F 50.0 °F 94% 29.80 in 1.8 mi ESE 6.9 mph - N/A   Mostly Cloudy
1:22 AM 50.0 °F 50.0 °F 100% 29.80 in 1.0 mi ESE 6.9 mph - N/A   Overcast
1:37 AM 50.0 °F 50.0 °F 100% 29.82 in 0.8 mi East 9.2 mph - N/A   Mist
1:44 AM 50.0 °F 50.0 °F 100% 29.82 in 0.2 mi East 8.1 mph - N/A Fog Fog
1:51 AM 50.0 °F 50.0 °F 100% 29.82 in 0.2 mi ESE 8.1 mph - N/A Fog Fog
2:51 AM 51.1 °F 51.1 °F 100% 29.80 in 0.2 mi NW 6.9 mph - N/A Fog Fog
3:34 AM 51.8 °F 51.8 °F 100% 29.79 in 0.2 mi West 3.5 mph - N/A Fog Fog
3:51 AM 51.1 °F 51.1 °F 100% 29.78 in 0.8 mi NW 6.9 mph - N/A   Mist
4:13 AM 51.8 °F 51.8 °F 100% 29.78 in 0.2 mi NW 5.8 mph - N/A Fog Fog
4:51 AM 52.0 °F 52.0 °F 100% 29.78 in 0.2 mi West 3.5 mph - 0.01 in Fog Fog
5:51 AM 53.1 °F 53.1 °F 100% 29.80 in 0.5 mi West 3.5 mph - N/A Fog Fog
6:08 AM 53.6 °F 53.6 °F 100% 29.81 in 0.8 mi Calm Calm - N/A   Mist
6:26 AM 53.6 °F 53.6 °F 100% 29.82 in 1.2 mi Calm Calm - N/A   Overcast
6:45 AM 53.6 °F 53.6 °F 100% 29.83 in 2.0 mi Calm Calm - N/A   Overcast
6:51 AM 53.1 °F 53.1 °F 100% 29.83 in 2.0 mi Calm Calm - N/A   Overcast
7:11 AM 53.6 °F 53.6 °F 100% 29.83 in 3.0 mi Calm Calm - N/A   Overcast
7:25 AM 53.6 °F 53.6 °F 100% 29.82 in 2.0 mi North 3.5 mph - N/A   Overcast
7:32 AM 53.6 °F 53.6 °F 100% 29.83 in 2.0 mi NNE 6.9 mph - N/A   Overcast
7:51 AM 52.0 °F 52.0 °F 100% 29.83 in 1.5 mi NNE 3.5 mph - N/A   Overcast
8:24 AM 51.8 °F 51.8 °F 100% 29.84 in 0.8 mi North 10.4 mph - N/A   Overcast
8:27 AM 51.8 °F 51.8 °F 100% 29.84 in 0.2 mi NNE 11.5 mph - N/A Fog Fog
8:42 AM 50.0 °F 50.0 °F 100% 29.84 in 1.0 mi North 9.2 mph - N/A   Overcast
8:51 AM 50.0 °F 50.0 °F 100% 29.85 in 1.5 mi North 8.1 mph - N/A   Overcast
9:11 AM 51.8 °F 50.0 °F 94% 29.84 in 4.0 mi North 8.1 mph - N/A   Overcast
9:51 AM 52.0 °F 51.1 °F 97% 29.85 in 6.0 mi North 4.6 mph - N/A   Overcast
10:51 AM 53.1 °F 51.1 °F 93% 29.86 in 4.0 mi North 3.5 mph - N/A   Overcast
11:32 AM 53.6 °F 51.8 °F 94% 29.86 in 3.0 mi NNW 4.6 mph - N/A   Overcast
11:51 AM 53.1 °F 52.0 °F 96% 29.87 in 3.0 mi NNW 4.6 mph - N/A   Overcast
12:18 PM 53.6 °F 51.8 °F 94% 29.86 in 1.5 mi NW 3.5 mph - N/A   Overcast
12:41 PM 53.6 °F 53.6 °F 100% 29.86 in 2.5 mi NW 4.6 mph - N/A   Overcast
12:51 PM 55.0 °F 53.1 °F 93% 29.86 in 5.0 mi NW 3.5 mph - N/A   Overcast
1:03 PM 55.4 °F 53.6 °F 94% 29.86 in 7.0 mi NW 8.1 mph - N/A   Overcast
1:51 PM 57.9 °F 54.0 °F 87% 29.86 in 8.0 mi NW 12.7 mph - N/A   Overcast
2:51 PM 57.9 °F 52.0 °F 81% 29.86 in 7.0 mi NNE 12.7 mph - N/A   Overcast
3:51 PM 60.1 °F 53.1 °F 78% 29.87 in 8.0 mi NNW 9.2 mph - N/A   Overcast
4:51 PM 61.0 °F 53.1 °F 75% 29.88 in 8.0 mi NNE 4.6 mph - N/A   Overcast
5:51 PM 60.1 °F 52.0 °F 75% 29.89 in 9.0 mi NNE 6.9 mph - N/A   Overcast
6:51 PM 60.1 °F 52.0 °F 75% 29.90 in 9.0 mi North 5.8 mph - N/A   Overcast
7:51 PM 54.0 °F 48.9 °F 83% 29.91 in 6.0 mi ENE 9.2 mph - N/A   Haze
8:19 PM 51.8 °F 48.2 °F 88% 29.91 in 3.0 mi NNE 9.2 mph - N/A   Overcast
8:24 PM 51.8 °F 48.2 °F 88% 29.92 in 2.5 mi NNE 13.8 mph - N/A   Overcast
8:36 PM 51.8 °F 48.2 °F 88% 29.92 in 2.5 mi NE 8.1 mph - N/A   Overcast
8:51 PM 51.1 °F 48.9 °F 92% 29.93 in 2.5 mi NNE 8.1 mph - N/A   Overcast
9:07 PM 51.8 °F 48.2 °F 88% 29.92 in 3.0 mi NNE 9.2 mph - N/A   Overcast
9:51 PM 51.1 °F 48.9 °F 92% 29.94 in 4.0 mi North 4.6 mph - N/A   Overcast
10:51 PM 51.1 °F 48.9 °F 92% 29.94 in 2.5 mi North 5.8 mph - 0.00 in   Light Drizzle
11:42 PM 51.8 °F 50.0 °F 94% 29.94 in 1.5 mi North 6.9 mph - 0.00 in   Light Drizzle
11:51 PM 51.1 °F 50.0 °F 96% 29.94 in 1.5 mi NNW 8.1 mph - 0.00 in   Light Drizzle